TVS160 EDLW-EHEH

Flight info

Callsign TVS160
Flight time 0h 32m
Altitude 8000
Route BAMSU2Q BAMSU M170 LNO LNO4E
Aircraft A20N/M-SDE2E3FGHIRWXY/LB1

Departure

Time 2026-05-05 18:38
Airport Dortmund Airport (EDLW)

Arrival

Time 2026-05-05 19:10
Airport Eindhoven Airport (EHEH)
Time Latitude Longitude Altitude Speed Heading
2026-05-05 18:12 51.51680 7.61591 431 ft 0 kts 149°
2026-05-05 18:30 51.51686 7.61585 421 ft 1 kts 149°
2026-05-05 18:30 51.51695 7.61577 424 ft 1 kts 149°
2026-05-05 18:30 51.51704 7.61569 421 ft 2 kts 149°
2026-05-05 18:31 51.51715 7.61557 416 ft 2 kts 149°
2026-05-05 18:31 51.51727 7.61547 416 ft 2 kts 159°
2026-05-05 18:31 51.51740 7.61541 416 ft 2 kts 186°
2026-05-05 18:31 51.51752 7.61547 412 ft 0 kts 240°
2026-05-05 18:34 51.51750 7.61543 413 ft 2 kts 239°
2026-05-05 18:34 51.51726 7.61463 418 ft 15 kts 242°
2026-05-05 18:34 51.51663 7.61293 420 ft 19 kts 238°
2026-05-05 18:34 51.51597 7.61099 424 ft 21 kts 241°
2026-05-05 18:35 51.51531 7.60878 426 ft 23 kts 239°
2026-05-05 18:35 51.51488 7.60755 425 ft 1 kts 241°
2026-05-05 18:35 51.51487 7.60754 425 ft 0 kts 241°
2026-05-05 18:36 51.51485 7.60748 426 ft 3 kts 240°
2026-05-05 18:36 51.51459 7.60676 421 ft 13 kts 239°
2026-05-05 18:36 51.51398 7.60510 421 ft 21 kts 240°
2026-05-05 18:37 51.51376 7.60287 425 ft 18 kts 311°
2026-05-05 18:37 51.51486 7.60254 422 ft 16 kts 31°
2026-05-05 18:37 51.51505 7.60300 421 ft 18 kts 60°
2026-05-05 18:37 51.51706 7.60853 423 ft 94 kts 60°
2026-05-05 18:38 51.52129 7.62054 490 ft 144 kts 58°
2026-05-05 18:38 51.52628 7.63501 1112 ft 149 kts 59°
2026-05-05 18:38 51.53104 7.64947 1936 ft 144 kts 60°
2026-05-05 18:38 51.53595 7.66357 2555 ft 151 kts 61°
2026-05-05 18:39 51.54153 7.67918 2976 ft 171 kts 60°
2026-05-05 18:39 51.54788 7.69679 3426 ft 195 kts 60°
2026-05-05 18:39 51.55501 7.71655 3907 ft 218 kts 60°
2026-05-05 18:39 51.56256 7.73903 4483 ft 240 kts 71°
2026-05-05 18:40 51.56451 7.76664 4891 ft 261 kts 97°
2026-05-05 18:40 51.55815 7.79395 4988 ft 264 kts 124°
2026-05-05 18:40 51.54455 7.81355 4998 ft 267 kts 152°
2026-05-05 18:40 51.52658 7.82080 5006 ft 269 kts 180°
2026-05-05 18:41 51.50846 7.81374 5010 ft 272 kts 207°
2026-05-05 18:41 51.49432 7.79390 4994 ft 273 kts 235°
2026-05-05 18:41 51.48696 7.76588 5020 ft 275 kts 256°
2026-05-05 18:41 51.48273 7.73576 5343 ft 278 kts 257°
2026-05-05 18:42 51.47774 7.70595 6358 ft 275 kts 252°
2026-05-05 18:42 51.47156 7.67715 7100 ft 277 kts 249°
2026-05-05 18:42 51.46426 7.64838 7507 ft 279 kts 246°
2026-05-05 18:42 51.45630 7.61980 7721 ft 280 kts 245°
2026-05-05 18:43 51.44812 7.59142 7818 ft 281 kts 245°
2026-05-05 18:43 51.43985 7.56298 7828 ft 281 kts 244°
2026-05-05 18:43 51.43163 7.53469 7829 ft 280 kts 245°
2026-05-05 18:43 51.42343 7.50635 7830 ft 280 kts 245°
2026-05-05 18:44 51.41533 7.47839 7830 ft 280 kts 244°
2026-05-05 18:44 51.40385 7.45345 7836 ft 279 kts 223°
2026-05-05 18:44 51.38993 7.43177 7830 ft 280 kts 232°
2026-05-05 18:44 51.38151 7.40388 7833 ft 281 kts 257°
2026-05-05 18:45 51.37846 7.37293 7765 ft 279 kts 262°
2026-05-05 18:45 51.37601 7.34256 7691 ft 270 kts 262°
2026-05-05 18:45 51.37375 7.31339 7600 ft 259 kts 262°
2026-05-05 18:45 51.37160 7.28592 7729 ft 245 kts 262°
2026-05-05 18:46 51.36949 7.25961 7917 ft 229 kts 262°
2026-05-05 18:46 51.36748 7.23479 7982 ft 225 kts 262°
2026-05-05 18:46 51.36611 7.21816 7983 ft 227 kts 262°
2026-05-05 18:46 51.36442 7.19772 7981 ft 226 kts 262°
2026-05-05 18:47 51.36268 7.17673 7982 ft 226 kts 262°
2026-05-05 18:47 51.36060 7.15183 7981 ft 226 kts 262°
2026-05-05 18:47 51.35852 7.12691 7982 ft 228 kts 262°
2026-05-05 18:47 51.35639 7.10147 7978 ft 227 kts 262°
2026-05-05 18:48 51.35430 7.07666 7979 ft 225 kts 262°
2026-05-05 18:48 51.35220 7.05169 7979 ft 226 kts 262°
2026-05-05 18:48 51.35010 7.02681 7982 ft 226 kts 262°
2026-05-05 18:48 51.34802 7.00205 7758 ft 230 kts 262°
2026-05-05 18:49 51.34586 6.97653 7499 ft 225 kts 262°
2026-05-05 18:49 51.34378 6.95195 7425 ft 228 kts 262°
2026-05-05 18:49 51.34163 6.92678 7702 ft 229 kts 262°
2026-05-05 18:49 51.33949 6.90174 7819 ft 225 kts 262°
2026-05-05 18:50 51.33736 6.87682 7828 ft 226 kts 262°
2026-05-05 18:50 51.33592 6.86005 7831 ft 226 kts 262°
2026-05-05 18:50 51.33382 6.83548 7830 ft 225 kts 262°
2026-05-05 18:50 51.33167 6.81056 7828 ft 226 kts 262°
2026-05-05 18:51 51.32952 6.78569 7827 ft 225 kts 262°
2026-05-05 18:51 51.32737 6.76081 7827 ft 225 kts 262°
2026-05-05 18:51 51.32525 6.73626 7828 ft 225 kts 262°
2026-05-05 18:51 51.32308 6.71140 7824 ft 225 kts 262°
2026-05-05 18:52 51.32091 6.68659 7829 ft 225 kts 262°
2026-05-05 18:52 51.31874 6.66175 7831 ft 225 kts 262°
2026-05-05 18:52 51.31657 6.63702 7828 ft 225 kts 262°
2026-05-05 18:52 51.31439 6.61222 7829 ft 225 kts 262°
2026-05-05 18:53 51.31221 6.58745 7857 ft 225 kts 262°
2026-05-05 18:53 51.31002 6.56265 7856 ft 225 kts 262°
2026-05-05 18:53 51.30786 6.53820 7858 ft 225 kts 262°
2026-05-05 18:53 51.30566 6.51347 7859 ft 225 kts 262°
2026-05-05 18:54 51.30346 6.48875 7858 ft 225 kts 262°
2026-05-05 18:54 51.30126 6.46407 7857 ft 224 kts 262°
2026-05-05 18:54 51.29906 6.43940 7858 ft 224 kts 262°
2026-05-05 18:54 51.29685 6.41468 7855 ft 224 kts 262°
2026-05-05 18:55 51.29463 6.38998 7856 ft 224 kts 262°
2026-05-05 18:55 51.29241 6.36536 7857 ft 224 kts 262°
2026-05-05 18:55 51.29019 6.34076 7855 ft 224 kts 262°
2026-05-05 18:55 51.28800 6.31657 7856 ft 224 kts 262°
2026-05-05 18:56 51.28576 6.29193 7858 ft 225 kts 262°
2026-05-05 18:56 51.28354 6.26746 7859 ft 225 kts 262°
2026-05-05 18:56 51.28128 6.24269 7861 ft 225 kts 262°
2026-05-05 18:56 51.27902 6.21794 7857 ft 225 kts 262°
2026-05-05 18:57 51.27675 6.19312 7857 ft 226 kts 262°
2026-05-05 18:57 51.27447 6.16833 7856 ft 225 kts 262°
2026-05-05 18:57 51.27220 6.14356 7856 ft 226 kts 262°
2026-05-05 18:57 51.26991 6.11874 7861 ft 226 kts 262°
2026-05-05 18:58 51.26761 6.09389 7864 ft 226 kts 262°
2026-05-05 18:58 51.26531 6.06905 7864 ft 226 kts 262°
2026-05-05 18:58 51.26300 6.04422 7861 ft 226 kts 262°
2026-05-05 18:58 51.26068 6.01932 7861 ft 227 kts 262°
2026-05-05 18:59 51.25836 5.99440 7861 ft 227 kts 262°
2026-05-05 18:59 51.25606 5.96982 7859 ft 227 kts 262°
2026-05-05 18:59 51.25372 5.94494 7822 ft 225 kts 262°
2026-05-05 18:59 51.25142 5.92018 7574 ft 225 kts 263°
2026-05-05 19:00 51.25245 5.89548 7207 ft 225 kts 289°
2026-05-05 19:00 51.25921 5.87326 6932 ft 220 kts 300°
2026-05-05 19:00 51.26668 5.85165 6869 ft 224 kts 300°
2026-05-05 19:00 51.27411 5.82972 6858 ft 224 kts 300°
2026-05-05 19:01 51.28148 5.80780 6867 ft 224 kts 300°
2026-05-05 19:01 51.28882 5.78597 6866 ft 225 kts 300°
2026-05-05 19:01 51.29620 5.76396 6803 ft 226 kts 300°
2026-05-05 19:01 51.30392 5.74099 6702 ft 254 kts 300°
2026-05-05 19:02 51.31287 5.71447 6539 ft 284 kts 300°
2026-05-05 19:02 51.32242 5.68598 6333 ft 291 kts 300°
2026-05-05 19:02 51.33184 5.65768 6259 ft 284 kts 298°
2026-05-05 19:02 51.33711 5.62755 5963 ft 283 kts 273°
2026-05-05 19:03 51.33397 5.59663 5548 ft 284 kts 253°
2026-05-05 19:03 51.32799 5.56651 5159 ft 283 kts 253°
2026-05-05 19:03 51.32196 5.53680 4912 ft 276 kts 253°
2026-05-05 19:03 51.31606 5.50750 4862 ft 280 kts 253°
2026-05-05 19:04 51.31021 5.47810 4855 ft 271 kts 253°
2026-05-05 19:04 51.30474 5.45049 4856 ft 256 kts 253°
2026-05-05 19:04 51.29953 5.42412 4856 ft 242 kts 253°
2026-05-05 19:04 51.29460 5.39918 4855 ft 229 kts 253°
2026-05-05 19:05 51.28998 5.37579 4856 ft 213 kts 254°
2026-05-05 19:05 51.28762 5.35278 4797 ft 208 kts 281°
2026-05-05 19:05 51.29277 5.33177 4521 ft 204 kts 306°
2026-05-05 19:05 51.30075 5.31307 4216 ft 204 kts 310°
2026-05-05 19:06 51.30902 5.29477 3940 ft 203 kts 310°
2026-05-05 19:06 51.31715 5.27649 3714 ft 200 kts 309°
2026-05-05 19:06 51.32715 5.26220 3468 ft 189 kts 343°
2026-05-05 19:06 51.33951 5.25960 3315 ft 175 kts 11°
2026-05-05 19:07 51.35091 5.26540 3098 ft 171 kts 28°
2026-05-05 19:07 51.36107 5.27498 2898 ft 166 kts 34°
2026-05-05 19:07 51.37008 5.28494 2721 ft 148 kts 36°
2026-05-05 19:07 51.37797 5.29372 2492 ft 130 kts 35°
2026-05-05 19:08 51.38505 5.30165 2254 ft 121 kts 35°
2026-05-05 19:08 51.39207 5.30951 1910 ft 126 kts 35°
2026-05-05 19:08 51.39931 5.31775 1343 ft 133 kts 35°
2026-05-05 19:08 51.40711 5.32645 860 ft 135 kts 35°
2026-05-05 19:09 51.41457 5.33483 621 ft 126 kts 34°
2026-05-05 19:09 51.42152 5.34271 524 ft 122 kts 34°
2026-05-05 19:09 51.42892 5.35079 397 ft 134 kts 34°
2026-05-05 19:09 51.43639 5.35913 213 ft 126 kts 35°
2026-05-05 19:10 51.44353 5.36708 83 ft 121 kts 34°
2026-05-05 19:10 51.44935 5.37362 73 ft 75 kts 35°
2026-05-05 19:10 51.45244 5.37703 73 ft 46 kts 36°
2026-05-05 19:10 51.45368 5.37872 84 ft 15 kts 72°
2026-05-05 19:11 51.45319 5.38017 73 ft 7 kts 126°
2026-05-05 19:11 51.45271 5.38127 73 ft 17 kts 124°
2026-05-05 19:11 51.45243 5.38196 77 ft 6 kts 121°
2026-05-05 19:11 51.45249 5.38277 74 ft 10 kts 21°
2026-05-05 19:12 51.45330 5.38354 75 ft 18 kts 36°
2026-05-05 19:12 51.45442 5.38328 75 ft 22 kts 307°
2026-05-05 19:12 51.45528 5.38128 74 ft 2 kts 306°
2026-05-05 19:12 51.45557 5.38081 71 ft 8 kts 326°
2026-05-05 19:13 51.45621 5.38131 78 ft 18 kts 36°
2026-05-05 19:13 51.45788 5.38318 75 ft 33 kts 36°
2026-05-05 19:13 51.45977 5.38533 76 ft 33 kts 35°
2026-05-05 19:13 51.46086 5.38695 71 ft 10 kts 86°
2026-05-05 19:14 51.46053 5.38795 84 ft 11 kts 124°
2026-05-05 19:14 51.46028 5.38856 73 ft 0 kts 124°
2026-05-05 19:15 51.46027 5.38857 73 ft 0 kts 124°
2026-05-05 19:15 51.46022 5.38869 71 ft 4 kts 124°
2026-05-05 19:15 51.45993 5.38939 70 ft 11 kts 124°
2026-05-05 19:15 51.45932 5.38986 75 ft 11 kts 196°
2026-05-05 19:16 51.45864 5.38917 72 ft 13 kts 214°
2026-05-05 19:16 51.45783 5.38820 73 ft 17 kts 218°
2026-05-05 19:16 51.45678 5.38701 67 ft 20 kts 214°
2026-05-05 19:16 51.45566 5.38549 70 ft 22 kts 214°
2026-05-05 19:17 51.45426 5.38432 74 ft 22 kts 206°
2026-05-05 19:17 51.45291 5.38316 68 ft 19 kts 214°
2026-05-05 19:17 51.45249 5.38312 78 ft 0 kts 120°
2026-05-05 19:17 51.45243 5.38326 75 ft 2 kts 122°
2026-05-05 19:18 51.45232 5.38353 74 ft 1 kts 124°
2026-05-05 19:18 51.45229 5.38360 74 ft 0 kts 124°